BEIDOU-3 M23 (C45)

Last updated on Sun Jun 21 2026 00:03:32 GMT+0000 (Coordinated Universal Time)

1 44543U 19061B 26171.17384045 .00000066 00000+0 00000+0 0 9996 2 44543 54.3949 182.5950 0005754 338.0602 98.8908 1.86227398 45859
UTC large
Height (km)
Speed (km/s)
/
Latitude / Longitude
Inclination (degrees)
Orbital Period (minutes)
Azimuth
Elevation
Range (km)
Doppler Factor

Next 0 passes for location: London (51.5072 / 0.1276)

No passes found over London.
BEIDOU-3 M23 (C45)